When you browse on this site, cookies collect data to enhance your experience and personalize the content and advertising you see.
Visit our Privacy Policy to learn more. By continuing to use the site, you agree to this use of cookies and data.
  • In Austria
  • List of Countries
  • For 7 days
  • Water Temperature
  • Satellite Maps
  • Weather Map
  • News
  • Weather Widgets
  • user-avatar
    Login

    Hourly Weather Melbourne

    Today, 24 March, Sunday

    Time Temperature Precipitation Wind Pressure Humidity
    00:00 +22°C° 0 mm 1 mps 757 mmHg 75%
    01:00 +21°C° 0 mm 1 mps 757 mmHg 76%
    02:00 +19°C° 0 mm 0 mps 757 mmHg 77%
    03:00 +19°C° 0 mm 0 mps 756 mmHg 79%
    04:00 +18°C° 0 mm 0 mps 756 mmHg 81%
    05:00 +18°C° 0 mm 0 mps 756 mmHg 81%
    06:00 +18°C° 0 mm 0 mps 756 mmHg 82%
    07:00 +18°C° 0 mm 0 mps 756 mmHg 82%
    08:00 +22°C° 0 mm 1 mps 756 mmHg 72%
    09:00 +24°C° 0 mm 2 mps 756 mmHg 62%
    10:00 +27°C° 0 mm 3 mps 756 mmHg 52%
    11:00 +28°C° 0 mm 3 mps 755 mmHg 46%
    12:00 +30°C° 0 mm 4 mps 754 mmHg 40%
    13:00 +32°C° 0 mm 5 mps 753 mmHg 34%
    14:00 +32°C° 0 mm 5 mps 752 mmHg 36%
    15:00 +32°C° 0 mm 6 mps 751 mmHg 38%
    16:00 +29°C° 0 mm 8 mps 751 mmHg 48%
    17:00 +28°C° 0.1 mm 8 mps 750 mmHg 50%
    18:00 +27°C° 0.1 mm 7 mps 750 mmHg 53%
    19:00 +26°C° 0.1 mm 6 mps 750 mmHg 56%
    20:00 +26°C° 0 mm 7 mps 750 mmHg 58%
    21:00 +26°C° 0 mm 7 mps 749 mmHg 60%
    22:00 +24°C° 0 mm 7 mps 749 mmHg 63%
    23:00 +24°C° 0.4 mm 7 mps 749 mmHg 62%

    Tomorrow, 25 March, Monday

    Time Temperature Precipitation Wind Pressure Humidity
    00:00 +23°C° 0.4 mm 7 mps 749 mmHg 62%
    01:00 +23°C° 0.4 mm 8 mps 749 mmHg 62%
    02:00 +22°C° 0 mm 7 mps 749 mmHg 60%
    03:00 +21°C° 0 mm 7 mps 749 mmHg 58%
    04:00 +20°C° 0 mm 7 mps 750 mmHg 56%
    05:00 +18°C° 0 mm 7 mps 750 mmHg 53%
    06:00 +17°C° 0 mm 7 mps 751 mmHg 50%
    07:00 +16°C° 0 mm 7 mps 751 mmHg 47%
    08:00 +16°C° 0 mm 7 mps 752 mmHg 44%
    09:00 +16°C° 0 mm 7 mps 753 mmHg 41%
    10:00 +16°C° 0 mm 8 mps 754 mmHg 38%
    11:00 +16°C° 0 mm 8 mps 754 mmHg 38%
    12:00 +16°C° 0 mm 8 mps 755 mmHg 38%
    13:00 +15°C° 0 mm 8 mps 755 mmHg 37%
    14:00 +16°C° 0 mm 8 mps 755 mmHg 36%
    15:00 +16°C° 0 mm 7 mps 755 mmHg 34%
    16:00 +16°C° 0 mm 7 mps 755 mmHg 32%
    17:00 +16°C° 0 mm 6 mps 756 mmHg 33%
    18:00 +15°C° 0 mm 6 mps 757 mmHg 34%
    19:00 +14°C° 0 mm 6 mps 757 mmHg 35%
    20:00 +14°C° 0 mm 6 mps 758 mmHg 37%
    21:00 +13°C° 0 mm 6 mps 758 mmHg 38%
    22:00 +13°C° 0 mm 6 mps 759 mmHg 40%
    23:00 +13°C° 0 mm 6 mps 759 mmHg 43%

    Day after tomorrow, 26 March, Tuesday

    Time Temperature Precipitation Wind Pressure Humidity
    00:00 +11°C° 0 mm 6 mps 760 mmHg 46%
    01:00 +11°C° 0 mm 6 mps 760 mmHg 49%
    02:00 +11°C° 0 mm 6 mps 760 mmHg 53%
    03:00 +12°C° 0 mm 5 mps 760 mmHg 56%
    04:00 +12°C° 0 mm 5 mps 760 mmHg 59%
    05:00 +12°C° 0 mm 5 mps 761 mmHg 61%
    06:00 +12°C° 0 mm 5 mps 762 mmHg 63%
    07:00 +12°C° 0 mm 5 mps 762 mmHg 64%
    08:00 +13°C° 0 mm 5 mps 763 mmHg 59%
    09:00 +14°C° 0 mm 5 mps 763 mmHg 54%
    10:00 +16°C° 0 mm 5 mps 764 mmHg 49%
    11:00 +17°C° 0 mm 5 mps 764 mmHg 45%
    12:00 +19°C° 0 mm 4 mps 764 mmHg 41%
    13:00 +20°C° 0 mm 4 mps 764 mmHg 37%
    14:00 +20°C° 0 mm 4 mps 764 mmHg 37%
    15:00 +21°C° 0 mm 4 mps 764 mmHg 36%
    16:00 +21°C° 0 mm 3 mps 764 mmHg 36%
    17:00 +20°C° 0 mm 3 mps 764 mmHg 41%
    18:00 +19°C° 0 mm 3 mps 765 mmHg 47%
    19:00 +18°C° 0 mm 3 mps 765 mmHg 52%
    20:00 +17°C° 0 mm 2 mps 766 mmHg 56%
    21:00 +16°C° 0 mm 1 mps 766 mmHg 59%
    22:00 +16°C° 0 mm 1 mps 767 mmHg 63%
    23:00 +15°C° 0 mm 1 mps 767 mmHg 66%

    27 March, Wednesday

    Time Temperature Precipitation Wind Pressure Humidity
    00:00 +15°C° 0 mm 1 mps 767 mmHg 69%
    01:00 +14°C° 0 mm 1 mps 767 mmHg 72%
    02:00 +14°C° 0 mm 1 mps 767 mmHg 74%
    03:00 +14°C° 0 mm 1 mps 767 mmHg 77%
    04:00 +13°C° 0 mm 1 mps 767 mmHg 79%
    05:00 +13°C° 0 mm 1 mps 767 mmHg 80%
    06:00 +13°C° 0 mm 1 mps 767 mmHg 81%
    07:00 +13°C° 0 mm 1 mps 767 mmHg 82%
    08:00 +15°C° 0 mm 1 mps 767 mmHg 72%
    09:00 +16°C° 0 mm 0 mps 767 mmHg 63%
    10:00 +19°C° 0 mm 0 mps 767 mmHg 53%
    11:00 +20°C° 0 mm 0 mps 767 mmHg 47%
    12:00 +24°C° 0 mm 1 mps 766 mmHg 41%
    13:00 +25°C° 0 mm 1 mps 766 mmHg 35%
    14:00 +25°C° 0 mm 1 mps 765 mmHg 35%
    15:00 +25°C° 0 mm 2 mps 765 mmHg 34%
    16:00 +25°C° 0 mm 2 mps 764 mmHg 34%
    17:00 +22°C° 0 mm 3 mps 764 mmHg 40%
    18:00 +21°C° 0 mm 3 mps 764 mmHg 45%
    19:00 +19°C° 0 mm 3 mps 764 mmHg 51%
    20:00 +18°C° 0 mm 3 mps 765 mmHg 56%
    21:00 +18°C° 0 mm 2 mps 765 mmHg 61%
    22:00 +17°C° 0 mm 2 mps 765 mmHg 66%
    23:00 +18°C° 0 mm 1 mps 764 mmHg 68%

    28 March, Thursday

    Time Temperature Precipitation Wind Pressure Humidity
    00:00 +16°C° 0 mm 1 mps 764 mmHg 69%
    01:00 +15°C° 0 mm 0 mps 763 mmHg 71%
    02:00 +16°C° 0 mm 1 mps 763 mmHg 70%
    03:00 +15°C° 0 mm 1 mps 762 mmHg 69%
    04:00 +15°C° 0 mm 1 mps 762 mmHg 68%
    05:00 +15°C° 0 mm 2 mps 762 mmHg 65%
    06:00 +15°C° 0 mm 2 mps 762 mmHg 62%
    07:00 +14°C° 0 mm 3 mps 762 mmHg 58%
    08:00 +18°C° 0 mm 3 mps 762 mmHg 55%
    09:00 +20°C° 0 mm 3 mps 762 mmHg 52%
    10:00 +22°C° 0 mm 4 mps 761 mmHg 48%
    11:00 +25°C° 0 mm 3 mps 761 mmHg 41%
    12:00 +27°C° 0 mm 3 mps 760 mmHg 34%
    13:00 +28°C° 0 mm 2 mps 760 mmHg 27%
    14:00 +29°C° 0 mm 2 mps 759 mmHg 25%
    15:00 +29°C° 0 mm 2 mps 758 mmHg 23%
    16:00 +29°C° 0 mm 2 mps 758 mmHg 22%
    17:00 +27°C° 0 mm 2 mps 758 mmHg 27%
    18:00 +25°C° 0 mm 3 mps 758 mmHg 33%
    19:00 +22°C° 0 mm 3 mps 758 mmHg 38%
    20:00 +21°C° 0 mm 3 mps 758 mmHg 48%
    21:00 +20°C° 0 mm 3 mps 759 mmHg 58%
    22:00 +18°C° 0 mm 2 mps 759 mmHg 67%
    23:00 +18°C° 0 mm 2 mps 759 mmHg 73%

    29 March, Friday

    Time Temperature Precipitation Wind Pressure Humidity
    00:00 +18°C° 0 mm 1 mps 758 mmHg 78%
    01:00 +15°C° 0 mm 0 mps 758 mmHg 83%
    02:00 +16°C° 0 mm 1 mps 757 mmHg 83%
    03:00 +16°C° 0 mm 1 mps 757 mmHg 82%
    04:00 +16°C° 0 mm 1 mps 756 mmHg 82%
    05:00 +15°C° 0 mm 1 mps 756 mmHg 79%
    06:00 +15°C° 0 mm 1 mps 756 mmHg 76%
    07:00 +15°C° 0 mm 1 mps 756 mmHg 73%
    08:00 +19°C° 0 mm 1 mps 756 mmHg 64%
    09:00 +20°C° 0 mm 2 mps 756 mmHg 54%
    10:00 +23°C° 0 mm 2 mps 755 mmHg 44%
    11:00 +25°C° 0 mm 3 mps 755 mmHg 39%
    12:00 +26°C° 0 mm 3 mps 754 mmHg 33%
    13:00 +27°C° 0 mm 4 mps 754 mmHg 28%
    14:00 +25°C° 0.2 mm 5 mps 753 mmHg 39%
    15:00 +22°C° 0.2 mm 5 mps 753 mmHg 49%
    16:00 +20°C° 0.2 mm 6 mps 753 mmHg 59%
    17:00 +19°C° 0 mm 6 mps 754 mmHg 56%
    18:00 +17°C° 0 mm 6 mps 755 mmHg 53%
    19:00 +17°C° 0 mm 7 mps 755 mmHg 50%
    20:00 +15°C° 0 mm 6 mps 756 mmHg 53%
    21:00 +14°C° 0 mm 6 mps 756 mmHg 56%
    22:00 +13°C° 0 mm 6 mps 757 mmHg 60%
    23:00 +13°C° 0 mm 6 mps 757 mmHg 60%
    Show more